Location: Baia Mare
(47.6567°N, 23.5850°E)
Time: 17:42:23
(UTC+03:00)

ISS - Pass Details

Date: 29 July 2018
Orbit: 402 x 408 km, 51.6° (Epoch: 20 July)

Event Time Altitude Azimuth Distance (km) Brightness Sun altitude
Rises 00:16:02 0° 293° (WNW) 2,326 0.7 -21.3°
Reaches altitude 10° 00:18:07 10° 294° (WNW) 1,465 -0.5 -21.5°
Enters shadow 00:20:39 50° 297° (WNW) 523 -3.1 -21.6°
